This is the latest recevied weather packets stored in our database for station/object W3JGB. If no packets are shown the sender has not sent any weather packets the latest 10 day(s).
| Time | Temp. | Humidity | Pressure | Rain* | Wind** | Luminosity | Snow |
|---|---|---|---|---|---|---|---|
| 1777596825 | 8.33° C | 83% | 1012.5 hPa | 0 mm | - | 0 W/m² | - |
| 1777596520 | 8.33° C | 83% | 1012.5 hPa | 0 mm | - | 0 W/m² | - |
| 1777596218 | 8.33° C | 80% | 1012.3 hPa | 0 mm | - | 0 W/m² | - |
| 1777595915 | 8.33° C | 80% | 1012.3 hPa | 0 mm | - | 0 W/m² | - |
| 1777595610 | 8.33° C | 81% | 1012.2 hPa | 0 mm | - | 0 W/m² | - |
| 1777595306 | 8.89° C | 82% | 1012.2 hPa | 0 mm | - | 0 W/m² | - |
| 1777595002 | 8.89° C | 81% | 1011.9 hPa | 0 mm | - | 0 W/m² | - |
| 1777594699 | 8.89° C | 78% | 1011.9 hPa | 0 mm | - | 0 W/m² | - |
| 1777594396 | 8.89° C | 80% | 1012 hPa | 0 mm | - | 0 W/m² | - |
| 1777594091 | 8.89° C | 80% | 1011.8 hPa | 0 mm | - | 0 W/m² | - |
| 1777593787 | 8.89° C | 78% | 1011.9 hPa | 0 mm | - | 2 W/m² | - |
| 1777593484 | 8.89° C | 79% | 1011.7 hPa | 0 mm | - | 4 W/m² | - |
| 1777593182 | 8.89° C | 79% | 1011.7 hPa | 0 mm | - | 6 W/m² | - |
| 1777592881 | 9.44° C | 80% | 1011.7 hPa | 0 mm | - | 8 W/m² | - |
| 1777592578 | 10° C | 78% | 1011.4 hPa | 0 mm | - | 10 W/m² | - |
| 1777592274 | 10° C | 77% | 1011.5 hPa | 0 mm | - | 3 W/m² | - |
| 1777591970 | 10° C | 75% | 1011.6 hPa | 0 mm | - | 5 W/m² | - |
| 1777591666 | 10° C | 74% | 1011.1 hPa | 0 mm | - | 10 W/m² | - |
| 1777591363 | 10° C | 75% | 1011.2 hPa | 0 mm | - | 7 W/m² | - |
| 1777591058 | 10° C | 75% | 1011.1 hPa | 0 mm | - | 7 W/m² | - |
| 1777590755 | 10° C | 76% | 1011.1 hPa | 0 mm | - | 6 W/m² | - |
| 1777590450 | 10.56° C | 75% | 1010.9 hPa | 0 mm | - | 7 W/m² | - |
| 1777590148 | 10.56° C | 75% | 1010.8 hPa | 0 mm | - | 9 W/m² | - |
| 1777589843 | 10.56° C | 77% | 1010.7 hPa | 0 mm | - | 17 W/m² | - |
| 1777589539 | 10.56° C | 76% | 1010.7 hPa | 0 mm | - | 19 W/m² | - |
* Rain latest hour (hover to see other rain measurements)
** Current wind speed in m/s (hover to see current wind gust speed)